Terminal Aerodrome Forecast
Issued by NWS

Home | Current Version | Previous Version | Text Only | Print | Product List | Glossary On
Versions: 1 2 3 4 5 6 7 8 9 10 11 12 13 14 15 16 17 18 19 20 21 22 23 24 25 26 27 28 29 30 31 32 33 34 35 36 37 38 39 40 41 42 43 44 45 46 47 48 49 50
000
FTUS41 KCTP 300342 AAA
TAFBFD
TAF AMD
KBFD 300342Z 3004/3024 VRB03KT P6SM BKN150
     FM300700 09003KT 5SM BR BKN150
     FM301200 10004KT 5SM -SHRA BR BKN050
     FM301800 12007KT 5SM -SHRA BR VCTS BKN035CB OVC100=

USA.gov is the U.S. government's official web portal to all federal, state and local government web resources and services.